1518051601.0,54728,7.13,72672.5,-7.35,-7.91,-7.91,0,*5D
1518051602.27,54729,7.13,72672.5,-7.35,-7.91,-7.91,0,*5C
1518051603.52,54730,7.13,72672.3,-7.35,-7.83,-7.91,0,*57
1518051604.77,54731,7.13,72674.0,-7.37,-7.91,-7.91,0,*57
1518051605.99,54732,7.19,72676.0,-7.37,-7.83,-7.91,0,*57
1518051607.24,54733,7.13,72674.5,-7.37,-7.91,-7.91,0,*55
1518051608.51,54734,7.13,72676.3,-7.35,-7.95,-7.91,0,*54
1518051609.76,54735,7.13,72674.5,-7.37,-7.91,-7.91,0,*53
1518051611.0,54736,7.13,72674.0,-7.37,-7.95,-7.95,0,*50
1518051612.25,54737,7.19,72678.8,-7.37,-7.91,-7.91,0,*51
1518051613.49,54738,7.13,72678.0,-7.37,-7.95,-7.91,0,*5A
1518051614.74,54739,7.19,72678.0,-7.37,-7.95,-7.95,0,*5F
1518051615.96,54740,7.19,72676.3,-7.37,-7.91,-7.83,0,*52
1518051617.22,54741,7.13,72674.5,-7.35,-7.83,-7.77,0,*59
1518051618.47,54742,7.13,72668.3,-7.35,-7.83,-7.77,0,*5A
1518051619.7,54743,7.13,72672.8,-7.35,-7.83,-7.83,0,*50
1518051620.92,54744,7.13,72672.8,-7.37,-7.77,-7.83,0,*5E
1518051622.15,54745,7.13,72672.8,-7.37,-7.77,-7.83,0,*5F
1518051623.42,54746,7.13,72672.5,-7.35,-7.69,-7.69,0,*55
1518051624.69,54747,7.13,72670.3,-7.35,-7.69,-7.69,0,*54
1518051625.97,54748,7.13,72672.0,-7.35,-7.65,-7.69,0,*57
1518051627.24,54749,7.13,72674.0,-7.35,-7.69,-7.69,0,*5A
1518051628.52,54750,7.19,72674.5,-7.35,-7.77,-7.65,0,*51
1518051629.79,54751,7.13,72674.5,-7.35,-7.69,-7.65,0,*5F
1518051631.07,54752,7.13,72674.5,-7.35,-7.69,-7.69,0,*50
1518051632.32,54753,7.19,72674.3,-7.33,-7.65,-7.65,0,*57
1518051633.59,54754,7.19,72674.8,-7.35,-7.69,-7.69,0,*56
1518051634.86,54755,7.13,72672.0,-7.35,-7.69,-7.69,0,*57
1518051636.13,54756,7.13,72674.8,-7.35,-7.77,-7.69,0,*5B
1518051637.41,54757,7.13,72672.8,-7.35,-7.77,-7.77,0,*55
1518051638.67,54758,7.13,72672.8,-7.33,-7.73,-7.73,0,*5C
1518051639.92,54759,7.13,72672.5,-7.33,-7.77,-7.65,0,*5E
1518051641.15,54760,7.13,72672.8,-7.35,-7.83,-7.83,0,*51
1518051642.4,54761,7.13,72672.3,-7.33,-7.77,-7.77,0,*56
1518051643.65,54762,7.19,72672.5,-7.33,-7.73,-7.77,0,*51
1518051644.91,54763,7.13,72674.8,-7.33,-7.73,-7.77,0,*50
1518051646.16,54764,7.13,72672.5,-7.35,-7.77,-7.83,0,*5E
1518051647.44,54765,7.13,72672.3,-7.35,-7.77,-7.77,0,*54
1518051648.69,54766,7.19,72678.3,-7.33,-7.77,-7.77,0,*51
1518051649.94,54767,7.13,72674.3,-7.35,-7.77,-7.83,0,*5D
1518051651.19,54768,7.19,72674.5,-7.33,-7.77,-7.77,0,*5F
1518051652.44,54769,7.13,72670.5,-7.33,-7.77,-7.77,0,*5E
1518051653.7,54770,7.13,72672.3,-7.33,-7.73,-7.77,0,*52
1518051654.95,54771,7.13,72672.8,-7.33,-7.77,-7.77,0,*57
1518051656.2,54772,7.19,72678.8,-7.33,-7.73,-7.73,0,*54
1518051657.45,54773,7.19,72674.3,-7.33,-7.77,-7.77,0,*55
1518051658.66,54774,7.19,72678.0,-7.33,-7.83,-7.83,0,*52
1518051659.86,54775,7.13,72674.3,-7.33,-7.87,-7.87,0,*53
1518051661.08,54776,7.13,72672.5,-7.33,-7.87,-7.91,0,*57
1518051662.28,54777,7.19,72678.5,-7.33,-7.87,-7.87,0,*51
1518051663.51,54778,7.13,72674.0,-7.33,-7.91,-7.87,0,*59
1518051664.71,54779,7.13,72674.5,-7.33,-7.87,-7.87,0,*5F
1518051665.93,54780,7.13,72674.3,-7.33,-7.91,-7.87,0,*5E
1518051667.13,54781,7.13,72674.8,-7.33,-7.87,-7.87,0,*58
1518051668.36,54782,7.13,72672.0,-7.33,-7.91,-7.87,0,*5C
1518051669.56,54783,7.19,72676.0,-7.33,-7.87,-7.87,0,*5A
1518051670.76,54784,7.13,72674.8,-7.33,-7.87,-7.87,0,*5D
1518051671.96,54785,7.13,72672.5,-7.33,-7.87,-7.87,0,*5C
1518051673.21,54786,7.13,72674.0,-7.33,-7.91,-7.91,0,*5F
1518051674.48,54787,7.13,72676.0,-7.35,-7.91,-7.95,0,*5C
1518051675.75,54788,7.13,72674.5,-7.35,-7.95,-7.95,0,*57
1518051676.97,54789,7.13,72676.5,-7.33,-7.87,-7.91,0,*57
1518051678.22,54790,7.19,72676.0,-7.33,-7.91,-7.91,0,*58
1518051679.47,54791,7.19,72676.0,-7.33,-7.99,-7.91,0,*51
1518051680.71,54792,7.19,72676.3,-7.33,-7.91,-7.91,0,*5A
1518051681.96,54793,7.13,72674.8,-7.33,-7.91,-7.91,0,*5B
1518051683.2,54794,7.19,72678.3,-7.33,-7.91,-7.91,0,*5C
1518051684.42,54795,7.19,72676.3,-7.33,-7.87,-7.99,0,*52
1518051685.65,54796,7.19,72678.8,-7.33,-7.91,-7.87,0,*59
1518051686.85,54797,7.13,72676.5,-7.33,-7.87,-7.87,0,*5F
1518051688.07,54798,7.13,72672.8,-7.33,-7.87,-7.91,0,*57
1518051689.34,54799,7.13,72672.3,-7.35,-7.95,-7.95,0,*57
1518051690.57,54800,7.13,72674.5,-7.33,-7.91,-7.87,0,*59
1518051691.81,54801,7.13,72672.8,-7.33,-7.91,-7.91,0,*5F
1518051693.02,54802,7.13,72672.5,-7.33,-7.87,-7.87,0,*5C
1518051694.22,54803,7.13,72674.5,-7.33,-7.87,-7.87,0,*5D
1518051695.42,54804,7.19,72676.5,-7.33,-7.87,-7.87,0,*5A
1518051696.64,54805,7.13,72672.8,-7.33,-7.87,-7.77,0,*54
1518051697.87,54806,7.13,72676.5,-7.33,-7.87,-7.77,0,*57
1518051699.07,54807,7.19,72676.0,-7.33,-7.87,-7.87,0,*59
1518051700.29,54808,7.19,72676.3,-7.33,-7.87,-7.91,0,*51
1518051701.52,54809,7.13,72674.5,-7.33,-7.87,-7.91,0,*50
1518051702.72,54810,7.13,72672.5,-7.33,-7.87,-7.87,0,*5F
1518051703.94,54811,7.19,72676.0,-7.33,-7.91,-7.87,0,*59
1518051705.14,54812,7.13,72672.8,-7.33,-7.87,-7.87,0,*5D
1518051706.37,54813,7.19,72676.8,-7.33,-7.91,-7.87,0,*5B
1518051707.59,54814,7.13,72674.5,-7.33,-7.91,-7.87,0,*5C
1518051708.79,54815,7.13,72674.0,-7.33,-7.87,-7.87,0,*5A
1518051710.06,54816,7.13,72674.3,-7.35,-7.91,-7.95,0,*5B
1518051711.29,54817,7.19,72676.5,-7.33,-7.87,-7.91,0,*5F
1518051712.51,54818,7.19,72674.8,-7.33,-7.87,-7.91,0,*50
1518051713.73,54819,7.19,72674.5,-7.33,-7.91,-7.87,0,*51
1518051714.96,54820,7.13,72672.0,-7.33,-7.87,-7.91,0,*5B
1518051716.16,54821,7.19,72674.5,-7.33,-7.87,-7.87,0,*5D
1518051717.38,54822,7.13,72674.5,-7.33,-7.91,-7.87,0,*59
1518051718.63,54823,7.13,72674.0,-7.33,-7.91,-7.91,0,*5F
1518051719.85,54824,7.19,72674.8,-7.33,-7.87,-7.91,0,*5F
1518051721.1,54825,7.13,72674.5,-7.33,-7.91,-7.91,0,*59
1518051722.34,54826,7.19,72674.3,-7.33,-7.91,-7.91,0,*5A
1518051723.57,54827,7.13,72674.5,-7.33,-7.91,-7.87,0,*5C
1518051724.81,54828,7.19,72676.0,-7.33,-7.91,-7.91,0,*54
1518051726.03,54829,7.13,72672.3,-7.33,-7.87,-7.91,0,*52
1518051727.28,54830,7.13,72674.5,-7.31,-7.91,-7.87,0,*58
1518051728.51,54831,7.19,72674.3,-7.31,-7.87,-7.87,0,*5E
1518051729.75,54832,7.13,72672.0,-7.31,-7.91,-7.87,0,*5A
1518051731.0,54833,7.19,72678.3,-7.33,-7.91,-7.91,0,*5E
1518051732.22,54834,7.13,72674.0,-7.33,-7.91,-7.87,0,*5E
1518051733.45,54835,7.19,72678.3,-7.33,-7.87,-7.91,0,*5F
1518051734.69,54836,7.13,72676.0,-7.33,-7.91,-7.91,0,*5B
1518051735.97,54837,7.19,72676.0,-7.35,-7.95,-7.91,0,*58
1518051737.19,54838,7.19,72676.0,-7.33,-7.87,-7.91,0,*52
1518051738.41,54839,7.13,72674.0,-7.33,-7.91,-7.87,0,*53
1518051739.66,54840,7.19,72676.3,-7.33,-7.91,-7.91,0,*5A
1518051740.9,54841,7.13,72674.0,-7.33,-7.91,-7.91,0,*5B
1518051742.15,54842,7.19,72678.3,-7.33,-7.91,-7.99,0,*50
1518051743.37,54843,7.13,72674.5,-7.33,-7.87,-7.91,0,*5E
1518051744.57,54844,7.13,72676.0,-7.33,-7.87,-7.87,0,*5E
1518051745.78,54845,7.19,72674.8,-7.33,-7.87,-7.87,0,*5F
1518051747.0,54846,7.13,72676.0,-7.33,-7.87,-7.91,0,*5B
1518051748.24,54847,7.13,72674.0,-7.33,-7.91,-7.91,0,*5D
1518051749.51,54848,7.19,72678.8,-7.31,-7.91,-7.91,0,*50
1518051750.78,54849,7.19,72676.8,-7.31,-7.91,-7.91,0,*51
1518051752.05,54850,7.13,72676.3,-7.31,-7.91,-7.91,0,*59
1518051753.27,54851,7.13,72676.3,-7.31,-7.87,-7.87,0,*58
1518051754.48,54852,7.19,72678.3,-7.33,-7.87,-7.87,0,*59
1518051755.72,54853,7.13,72672.5,-7.33,-7.91,-7.91,0,*58
1518051756.95,54854,7.13,72672.3,-7.33,-7.91,-7.87,0,*58
1518051758.17,54855,7.13,72674.8,-7.33,-7.87,-7.91,0,*59
1518051759.41,54856,7.19,72676.0,-7.33,-7.91,-7.91,0,*5D
1518051760.64,54857,7.13,72674.3,-7.31,-7.87,-7.87,0,*5E
1518051761.89,54858,7.19,72676.0,-7.31,-7.91,-7.87,0,*56
1518051763.16,54859,7.19,72678.8,-7.31,-7.91,-7.91,0,*50
1518051764.4,54860,7.13,72674.5,-7.31,-7.91,-7.87,0,*5D
1518051765.65,54861,7.19,72676.3,-7.31,-7.91,-7.87,0,*5C
1518051766.87,54862,7.13,72672.5,-7.31,-7.87,-7.87,0,*58
1518051768.07,54863,7.19,72676.0,-7.33,-7.87,-7.87,0,*5B
1518051769.3,54864,7.19,72676.0,-7.33,-7.91,-7.87,0,*5B
1518051770.52,54865,7.13,72672.8,-7.31,-7.87,-7.87,0,*5F
1518051771.75,54866,7.19,72676.0,-7.31,-7.87,-7.87,0,*5C
1518051773.02,54867,7.19,72676.3,-7.31,-7.91,-7.91,0,*5D
1518051774.26,54868,7.19,72676.0,-7.33,-7.91,-7.91,0,*50
1518051775.53,54869,7.19,72676.8,-7.31,-7.91,-7.91,0,*53
1518051776.8,54870,7.19,72676.3,-7.31,-7.99,-7.91,0,*53
1518051778.07,54871,7.19,72676.3,-7.31,-8.03,-7.99,0,*56
1518051779.34,54872,7.13,72672.8,-7.31,-7.99,-7.99,0,*59
1518051780.61,54873,7.19,72678.0,-7.31,-7.99,-7.99,0,*58
1518051781.88,54874,7.13,72674.5,-7.31,-7.99,-7.91,0,*57
1518051783.15,54875,7.19,72678.0,-7.31,-7.91,-7.91,0,*5E
1518051784.42,54876,7.13,72672.0,-7.31,-7.91,-7.91,0,*5D
1518051785.64,54877,7.13,72674.5,-7.33,-7.87,-7.91,0,*59
1518051786.88,54878,7.13,72672.5,-7.33,-7.91,-7.91,0,*51
1518051788.13,54879,7.19,72678.8,-7.33,-7.91,-7.91,0,*50
1518051789.38,54880,7.13,72674.5,-7.31,-7.91,-7.87,0,*53
1518051790.6,54881,7.19,72676.8,-7.33,-7.87,-7.91,0,*50
1518051791.85,54882,7.13,72674.5,-7.33,-7.91,-7.91,0,*54
1518051793.09,54883,7.19,72678.5,-7.33,-7.91,-7.91,0,*55
1518051794.36,54884,7.13,72674.8,-7.31,-7.91,-7.91,0,*50
1518051795.63,54885,7.13,72674.3,-7.31,-7.91,-7.91,0,*51
1518051796.88,54886,7.19,72676.3,-7.31,-7.99,-7.87,0,*5D
1518051798.12,54887,7.19,72676.3,-7.31,-7.91,-7.87,0,*54
1518051799.35,54888,7.13,72672.5,-7.31,-7.87,-7.87,0,*5C
1518051800.6,54889,7.19,72678.0,-7.31,-7.91,-7.87,0,*5A
1518051801.84,54890,7.19,72676.3,-7.31,-7.91,-7.87,0,*52
1518051803.09,54891,7.19,72674.5,-7.31,-7.91,-7.87,0,*53
1518051804.31,54892,7.19,72676.0,-7.33,-7.87,-7.91,0,*52
1518051805.58,54893,7.13,72672.3,-7.31,-7.91,-7.91,0,*56
1518051806.83,54894,7.19,72676.5,-7.31,-7.87,-7.91,0,*56
1518051808.1,54895,7.13,72672.0,-7.31,-7.99,-7.99,0,*50
1518051809.37,54896,7.13,72672.3,-7.31,-7.91,-7.91,0,*53
1518051810.64,54897,7.19,72678.0,-7.31,-7.99,-7.99,0,*52
1518051811.91,54898,7.13,72674.5,-7.35,-8.03,-8.03,0,*59
1518051813.15,54899,7.19,72674.8,-7.33,-7.91,-7.91,0,*5E
1518051814.4,54900,7.19,72676.8,-7.33,-7.91,-7.99,0,*57
1518051815.67,54901,7.19,72676.3,-7.31,-7.99,-7.99,0,*5C
1518051816.94,54902,7.19,72674.0,-7.31,-7.99,-7.99,0,*5F
1518051818.21,54903,7.19,72674.0,-7.31,-7.99,-7.91,0,*56
1518051819.48,54904,7.19,72672.5,-7.31,-7.91,-7.91,0,*59
1518051820.74,54905,7.13,72672.5,-7.31,-7.91,-7.91,0,*58
1518051821.97,54906,7.13,72674.3,-7.33,-7.91,-7.87,0,*5E
1518051823.24,54907,7.19,72676.0,-7.31,-7.91,-7.91,0,*5A
1518051824.51,54908,7.13,72674.5,-7.31,-7.91,-7.91,0,*55
1518051825.75,54909,7.19,72672.3,-7.33,-7.91,-7.91,0,*56
1518051827.02,54910,7.19,72676.3,-7.31,-7.91,-7.91,0,*5C
1518051828.29,54911,7.19,72674.3,-7.35,-7.95,-7.91,0,*5D
1518051829.56,54912,7.19,72674.0,-7.31,-7.91,-7.91,0,*5E
1518051830.83,54913,7.19,72672.0,-7.31,-7.91,-7.91,0,*5F
1518051832.1,54914,7.19,72674.5,-7.31,-7.91,-7.91,0,*58
1518051833.3,54915,7.19,72674.0,-7.29,-7.87,-7.83,0,*54
1518051834.52,54916,7.19,72674.8,-7.31,-7.87,-7.87,0,*5A
1518051835.74,54917,7.19,72674.8,-7.31,-7.87,-7.87,0,*5B
1518051836.97,54918,7.19,72674.8,-7.31,-7.87,-7.87,0,*54
1518051838.22,54919,7.13,72670.5,-7.31,-7.87,-7.91,0,*52
1518051839.41,54920,7.19,72674.0,-7.29,-7.83,-7.87,0,*52
1518051840.66,54921,7.19,72672.3,-7.31,-7.77,-7.87,0,*51
1518051841.88,54922,7.13,72672.8,-7.31,-7.87,-7.87,0,*5D
1518051843.15,54923,7.19,72672.8,-7.31,-7.91,-7.77,0,*54
1518051844.4,54924,7.13,72674.0,-7.31,-7.91,-7.87,0,*5C
1518051845.65,54925,7.13,72670.0,-7.31,-7.87,-7.77,0,*55
1518051846.87,54926,7.19,72674.0,-7.29,-7.87,-7.73,0,*5B
1518051848.12,54927,7.19,72674.0,-7.31,-7.91,-7.87,0,*5F
1518051849.36,54928,7.19,72676.5,-7.31,-7.91,-7.87,0,*50
1518051850.59,54929,7.19,72674.0,-7.31,-7.87,-7.87,0,*56
1518051851.79,54930,7.19,72674.5,-7.33,-7.83,-7.83,0,*5C
1518051852.99,54931,7.19,72674.8,-7.29,-7.87,-7.87,0,*56
1518051854.21,54932,7.13,72672.5,-7.31,-7.87,-7.87,0,*5C
1518051855.41,54933,7.13,72674.5,-7.29,-7.87,-7.83,0,*50
1518051856.6,54934,7.19,72672.8,-7.29,-7.83,-7.87,0,*57
1518051857.8,54935,7.13,72670.8,-7.29,-7.87,-7.83,0,*56
1518051859.02,54936,7.19,72676.3,-7.31,-7.87,-7.87,0,*58
1518051860.27,54937,7.19,72674.8,-7.31,-7.91,-7.87,0,*5E
1518051861.49,54938,7.19,72676.8,-7.31,-7.87,-7.87,0,*56
1518051862.74,54939,7.19,72674.3,-7.31,-7.91,-7.87,0,*50
1518051863.96,54940,7.13,72670.3,-7.31,-7.87,-7.87,0,*59
1518051865.21,54941,7.19,72674.3,-7.31,-7.87,-7.91,0,*5F
1518051866.46,54942,7.13,72670.0,-7.31,-7.91,-7.87,0,*5C
1518051867.68,54943,7.19,72674.8,-7.31,-7.87,-7.87,0,*5A
1518051868.88,54944,7.19,72670.8,-7.29,-7.83,-7.87,0,*50
1518051870.07,54945,7.19,72670.8,-7.29,-7.87,-7.87,0,*55
1518051871.3,54946,7.19,72674.0,-7.31,-7.87,-7.87,0,*5F
1518051872.52,54947,7.19,72672.8,-7.31,-7.87,-7.87,0,*5E
1518051873.77,54948,7.19,72672.5,-7.31,-7.87,-7.91,0,*56
1518051874.99,54949,7.19,72672.3,-7.29,-7.73,-7.83,0,*56
1518051876.22,54950,7.19,72672.8,-7.29,-7.73,-7.87,0,*5A
1518051877.44,54951,7.19,72674.3,-7.29,-7.83,-7.73,0,*5F
1518051878.64,54952,7.19,72672.0,-7.29,-7.83,-7.83,0,*53
1518051879.91,54953,7.13,72670.0,-7.31,-7.77,-7.73,0,*5F
1518051881.15,54954,7.19,72672.3,-7.29,-7.91,-7.69,0,*52
1518051882.34,54955,7.13,72672.3,-7.29,-7.83,-7.87,0,*50
1518051883.61,54956,7.19,72672.3,-7.31,-7.91,-7.77,0,*56
1518051884.83,54957,7.19,72674.0,-7.29,-7.83,-7.73,0,*59
1518051886.05,54958,7.13,72670.3,-7.29,-7.83,-7.73,0,*56
1518051887.3,54959,7.19,72672.0,-7.31,-7.87,-7.73,0,*5A
1518051888.53,54960,7.19,72672.3,-7.31,-7.87,-7.87,0,*5B
1518051889.75,54961,7.19,72674.0,-7.29,-7.73,-7.83,0,*5C
1518051891.0,54962,7.19,72672.0,-7.31,-7.87,-7.91,0,*5E
1518051892.25,54963,7.13,72670.3,-7.31,-7.87,-7.77,0,*57
1518051893.47,54964,7.13,72668.8,-7.29,-7.83,-7.73,0,*59
1518051894.69,54965,7.19,72670.3,-7.29,-7.83,-7.73,0,*58
1518051895.93,54966,7.19,72670.3,-7.29,-7.77,-7.77,0,*54
1518051897.15,54967,7.13,72668.0,-7.31,-7.87,-7.87,0,*5C
1518051898.38,54968,7.13,72670.0,-7.29,-7.73,-7.83,0,*55
1518051899.65,54969,7.19,72674.5,-7.31,-7.77,-7.77,0,*52
1518051900.9,54970,7.19,72674.8,-7.29,-7.73,-7.73,0,*53
1518051902.18,54971,7.19,72676.0,-7.31,-7.77,-7.77,0,*5B
1518051903.45,54972,7.19,72672.8,-7.31,-7.77,-7.77,0,*58
1518051904.69,54973,7.19,72672.8,-7.29,-7.77,-7.77,0,*50
1518051905.93,54974,7.13,72670.0,-7.29,-7.69,-7.69,0,*57
1518051907.21,54975,7.19,72672.8,-7.31,-7.73,-7.77,0,*5B
1518051908.48,54976,7.19,72668.5,-7.31,-7.77,-7.73,0,*58
1518051909.76,54977,7.19,72674.5,-7.31,-7.73,-7.73,0,*5D
1518051911.01,54978,7.19,72672.5,-7.29,-7.73,-7.73,0,*5B
1518051912.26,54979,7.19,72670.8,-7.29,-7.73,-7.69,0,*51
1518051913.5,54980,7.19,72672.8,-7.29,-7.69,-7.73,0,*57
1518051914.77,54981,7.13,72668.0,-7.31,-7.77,-7.77,0,*54
1518051916.02,54982,7.19,72670.0,-7.29,-7.73,-7.73,0,*5E
1518051917.27,54983,7.19,72672.3,-7.29,-7.73,-7.69,0,*54
1518051918.52,54984,7.19,72674.3,-7.29,-7.73,-7.73,0,*58
1518051919.8,54985,7.19,72672.8,-7.31,-7.73,-7.73,0,*50
1518051921.05,54986,7.19,72672.5,-7.29,-7.73,-7.73,0,*5A
1518051922.29,54987,7.19,72670.5,-7.29,-7.69,-7.73,0,*50
1518051923.53,54988,7.19,72672.0,-7.29,-7.73,-7.69,0,*5F
1518051924.78,54989,7.13,72666.3,-7.29,-7.73,-7.69,0,*5E
1518051926.03,54990,7.19,72670.3,-7.29,-7.73,-7.73,0,*5D
1518051927.27,54991,7.19,72672.0,-7.29,-7.69,-7.69,0,*5C
1518051928.51,54992,7.19,72670.8,-7.29,-7.73,-7.69,0,*54
1518051929.76,54993,7.19,72672.3,-7.29,-7.73,-7.69,0,*55
1518051931.0,54994,7.19,72672.3,-7.29,-7.69,-7.73,0,*52
1518051932.25,54995,7.19,72672.5,-7.29,-7.73,-7.73,0,*58
1518051933.49,54996,7.19,72670.0,-7.29,-7.69,-7.69,0,*5B
1518051934.73,54997,7.19,72668.0,-7.29,-7.69,-7.69,0,*5A
1518051935.97,54998,7.19,72672.5,-7.29,-7.69,-7.73,0,*5E
1518051937.21,54999,7.19,72672.5,-7.29,-7.69,-7.69,0,*54
1518051938.46,55000,7.19,72668.8,-7.29,-7.73,-7.69,0,*57
1518051939.73,55001,7.19,72670.8,-7.27,-7.69,-7.65,0,*5F
1518051941.0,55002,7.13,72668.3,-7.27,-7.69,-7.77,0,*5F
1518051942.28,55003,7.19,72670.5,-7.27,-7.65,-7.65,0,*51
1518051943.55,55004,7.13,72670.3,-7.27,-7.69,-7.65,0,*5A
1518051944.79,55005,7.19,72674.0,-7.25,-7.69,-7.69,0,*55
1518051946.07,55006,7.19,72668.8,-7.27,-7.65,-7.65,0,*54
1518051947.34,55007,7.19,72674.0,-7.27,-7.69,-7.69,0,*55
1518051948.58,55008,7.19,72670.8,-7.25,-7.69,-7.69,0,*58
1518051949.86,55009,7.19,72670.0,-7.27,-7.65,-7.77,0,*58
1518051951.13,55010,7.19,72670.8,-7.27,-7.69,-7.69,0,*53
1518051952.35,55011,7.19,72670.5,-7.25,-7.83,-7.69,0,*54
1518051953.62,55012,7.19,72670.8,-7.27,-7.77,-7.77,0,*51
1518051954.87,55013,7.19,72672.5,-7.27,-7.77,-7.83,0,*5B
1518051956.12,55014,7.13,72668.5,-7.27,-7.77,-7.83,0,*5C
1518051957.35,55015,7.19,72670.8,-7.27,-7.83,-7.83,0,*56
1518051958.57,55016,7.19,72672.8,-7.27,-7.83,-7.83,0,*55
1518051959.8,55017,7.13,72670.0,-7.27,-7.83,-7.83,0,*54
1518051961.07,55018,7.19,72668.8,-7.27,-7.91,-7.77,0,*53
1518051962.32,55019,7.19,72674.5,-7.27,-7.83,-7.77,0,*51
1518051963.55,55020,7.13,72670.3,-7.27,-7.83,-7.83,0,*50
1518051964.82,55021,7.19,72668.3,-7.27,-7.77,-7.77,0,*51
1518051966.09,55022,7.19,72672.5,-7.27,-7.77,-7.77,0,*52
1518051967.36,55023,7.19,72670.5,-7.27,-7.77,-7.69,0,*5C
1518051968.64,55024,7.19,72670.0,-7.27,-7.69,-7.77,0,*5B
1518051969.83,55025,7.19,72668.0,-7.29,-7.83,-7.83,0,*5B
1518051971.11,55026,7.19,72668.8,-7.27,-7.77,-7.77,0,*56
1518051972.3,55027,7.19,72674.5,-7.29,-7.87,-7.83,0,*5D
1518051973.5,55028,7.19,72666.5,-7.29,-7.87,-7.83,0,*52
1518051974.69,55029,7.19,72668.3,-7.29,-7.83,-7.83,0,*57
1518051975.94,55030,7.19,72666.3,-7.27,-7.77,-7.83,0,*5A
1518051977.17,55031,7.19,72666.0,-7.27,-7.83,-7.83,0,*50
1518051978.42,55032,7.19,72670.0,-7.27,-7.77,-7.83,0,*58
1518051979.67,55033,7.19,72666.5,-7.27,-7.91,-7.83,0,*51
1518051980.94,55034,7.19,72666.0,-7.27,-7.91,-7.91,0,*55
1518051982.16,55035,7.19,72668.5,-7.27,-7.83,-7.83,0,*54
1518051983.41,55036,7.19,72670.0,-7.27,-7.91,-7.83,0,*54
1518051984.66,55037,7.19,72668.3,-7.27,-7.91,-7.83,0,*55
1518051985.88,55038,7.19,72666.8,-7.27,-7.83,-7.83,0,*59
1518051987.11,55039,7.19,72666.0,-7.25,-7.91,-7.83,0,*59
1518051988.36,55040,7.19,72666.3,-7.27,-7.83,-7.91,0,*55
1518051989.6,55041,7.19,72668.0,-7.27,-7.91,-7.83,0,*54
1518051990.85,55042,7.19,72666.0,-7.27,-7.91,-7.83,0,*57
1518051992.12,55043,7.19,72664.3,-7.27,-7.91,-7.91,0,*55
1518051993.37,55044,7.19,72668.0,-7.27,-7.91,-7.83,0,*51
1518051994.59,55045,7.19,72666.3,-7.27,-7.83,-7.83,0,*53
1518051995.84,55046,7.19,72666.5,-7.27,-7.83,-7.77,0,*5B
1518051997.07,55047,7.19,72666.0,-7.27,-7.83,-7.83,0,*51
1518051998.32,55048,7.19,72666.0,-7.27,-7.91,-7.83,0,*5D
1518051999.57,55049,7.19,72664.8,-7.27,-7.91,-7.83,0,*5C
1518052000.84,55050,7.13,72664.8,-7.27,-7.91,-7.91,0,*57
1518052002.03,55051,7.13,72662.5,-7.29,-7.87,-7.83,0,*5C
1518052003.26,55052,7.19,72668.3,-7.27,-7.83,-7.83,0,*55
1518052004.51,55053,7.19,72666.0,-7.27,-7.77,-7.83,0,*5F
1518052005.76,55054,7.19,72664.5,-7.25,-7.77,-7.77,0,*51
1518052007.01,55055,7.19,72666.3,-7.27,-7.83,-7.77,0,*59
1518052008.23,55056,7.19,72664.0,-7.27,-7.83,-7.83,0,*51
1518052009.48,55057,7.19,72666.5,-7.27,-7.91,-7.83,0,*53
1518052010.7,55058,7.19,72664.5,-7.25,-7.83,-7.91,0,*5E
1518052011.95,55059,7.19,72668.0,-7.27,-7.83,-7.91,0,*5D
1518052013.19,55060,7.19,72664.3,-7.29,-7.95,-7.95,0,*5A
1518052014.38,55061,7.19,72668.0,-7.29,-7.83,-7.83,0,*5B
1518052015.66,55062,7.13,72664.5,-7.27,-7.77,-7.77,0,*56
1518052016.93,55063,7.19,72666.8,-7.27,-7.77,-7.77,0,*57
1518052018.16,55064,7.19,72666.3,-7.29,-7.73,-7.83,0,*51
1518052019.41,55065,7.19,72670.8,-7.27,-7.77,-7.83,0,*5A
1518052020.66,55066,7.19,72664.8,-7.27,-7.77,-7.83,0,*59
1518052021.88,55067,7.19,72664.5,-7.27,-7.83,-7.83,0,*53
1518052023.11,55068,7.19,72666.5,-7.27,-7.83,-7.83,0,*5C
1518052024.38,55069,7.19,72668.8,-7.27,-7.91,-7.91,0,*5D
1518052025.6,55070,7.19,72670.8,-7.27,-7.83,-7.83,0,*55
1518052026.83,55071,7.19,72670.5,-7.27,-7.83,-7.83,0,*54
1518052028.05,55072,7.19,72664.5,-7.29,-7.95,-7.87,0,*5A
1518052029.29,55073,7.19,72670.8,-7.27,-7.83,-7.95,0,*51
1518052030.54,55074,7.19,72668.5,-7.27,-7.91,-7.83,0,*52
1518052031.79,55075,7.19,72668.0,-7.27,-7.83,-7.95,0,*57
1518052032.99,55076,7.19,72668.8,-7.25,-7.83,-7.83,0,*51
1518052034.24,55077,7.19,72664.5,-7.27,-7.77,-7.83,0,*59
1518052035.48,55078,7.19,72664.5,-7.27,-7.83,-7.91,0,*5E
1518052036.75,55079,7.13,72660.8,-7.27,-7.91,-7.91,0,*5C
1518052038.0,55080,7.19,72664.5,-7.27,-7.91,-7.83,0,*59
1518052039.2,55081,7.19,72666.5,-7.29,-7.87,-7.87,0,*55
1518052040.39,55082,7.19,72664.5,-7.29,-7.87,-7.83,0,*52
1518052041.64,55083,7.19,72666.0,-7.27,-7.83,-7.77,0,*52
1518052042.84,55084,7.13,72662.3,-7.29,-7.87,-7.83,0,*54
1518052044.03,55085,7.19,72664.3,-7.29,-7.87,-7.83,0,*55
1518052045.23,55086,7.19,72668.3,-7.29,-7.87,-7.83,0,*56
1518052046.48,55087,7.19,72664.8,-7.27,-7.77,-7.83,0,*56
1518052047.7,55088,7.19,72666.8,-7.27,-7.83,-7.83,0,*52
1518052048.98,55089,7.19,72666.8,-7.27,-7.91,-7.77,0,*5B
1518052050.2,55090,7.19,72668.0,-7.27,-7.83,-7.83,0,*5B
1518052051.43,55091,7.19,72664.3,-7.27,-7.83,-7.83,0,*5A
1518052052.68,55092,7.19,72666.8,-7.27,-7.95,-7.83,0,*5E
1518052053.95,55093,7.19,72664.3,-7.27,-7.91,-7.91,0,*58
1518052055.19,55094,7.19,72664.8,-7.27,-7.83,-7.91,0,*5C
1518052056.44,55095,7.19,72662.8,-7.27,-7.91,-7.83,0,*5D
1518052057.72,55096,7.19,72666.0,-7.27,-7.77,-7.77,0,*5D
1518052058.94,55097,7.19,72664.3,-7.27,-7.83,-7.83,0,*5C
1518052060.17,55098,7.19,72662.8,-7.27,-7.83,-7.83,0,*53
1518052061.42,55099,7.19,72666.0,-7.27,-7.83,-7.77,0,*59
1518052062.69,55100,7.19,72666.0,-7.27,-7.77,-7.77,0,*53
1518052063.94,55101,7.19,72662.8,-7.27,-7.91,-7.83,0,*51
1518052065.19,55102,7.19,72662.5,-7.27,-7.91,-7.83,0,*52
1518052066.46,55103,7.19,72662.3,-7.27,-7.91,-7.77,0,*58
1518052067.71,55104,7.19,72664.3,-7.27,-7.83,-7.77,0,*5C
1518052068.93,55105,7.19,72664.8,-7.27,-7.83,-7.83,0,*56
1518052070.18,55106,7.19,72668.0,-7.27,-7.77,-7.83,0,*5E
1518052071.41,55107,7.19,72666.5,-7.27,-7.83,-7.83,0,*54
1518052072.66,55108,7.19,72666.5,-7.27,-7.77,-7.83,0,*50
1518052073.88,55109,7.19,72666.3,-7.25,-7.83,-7.77,0,*53
1518052075.13,55110,7.19,72666.3,-7.27,-7.83,-7.77,0,*59
1518052076.33,55111,7.13,72660.0,-7.29,-7.83,-7.83,0,*5D
1518052077.53,55112,7.19,72664.8,-7.29,-7.83,-7.87,0,*5A
1518052078.8,55113,7.19,72664.0,-7.27,-7.69,-7.77,0,*5E
1518052080.07,55114,7.19,72666.3,-7.27,-7.77,-7.77,0,*56
1518052081.32,55115,7.19,72664.0,-7.27,-7.83,-7.77,0,*5C
1518052082.59,55116,7.19,72666.8,-7.27,-7.77,-7.77,0,*54
1518052083.86,55117,7.19,72666.5,-7.27,-7.77,-7.69,0,*5A
1518052085.14,55118,7.19,72668.8,-7.27,-7.69,-7.77,0,*55
1518052086.4,55119,7.19,72668.5,-7.27,-7.69,-7.69,0,*5B
1518052087.68,55120,7.19,72664.8,-7.27,-7.77,-7.77,0,*51
1518052088.95,55121,7.19,72662.8,-7.27,-7.65,-7.69,0,*5C
1518052090.2,55122,7.19,72666.0,-7.25,-7.69,-7.69,0,*51
1518052091.44,55123,7.19,72664.0,-7.25,-7.69,-7.69,0,*50
1518052092.71,55124,7.19,72664.5,-7.27,-7.69,-7.69,0,*55
1518052093.98,55125,7.13,72660.5,-7.27,-7.69,-7.69,0,*54
1518052095.25,55126,7.19,72660.8,-7.27,-7.69,-7.65,0,*5B
1518052096.52,55127,7.19,72664.0,-7.27,-7.69,-7.69,0,*56
1518052097.79,55128,7.19,72666.5,-7.27,-7.69,-7.69,0,*59
1518052099.06,55129,7.19,72664.3,-7.27,-7.69,-7.69,0,*58
1518052100.33,55130,7.19,72664.0,-7.27,-7.77,-7.69,0,*5F
1518052101.57,55131,7.19,72664.0,-7.25,-7.69,-7.77,0,*5C
1518052102.83,55132,7.19,72664.5,-7.25,-7.65,-7.65,0,*50
1518052104.09,55133,7.19,72662.5,-7.27,-7.69,-7.69,0,*53
1518052105.36,55134,7.19,72662.5,-7.27,-7.69,-7.69,0,*54
1518052106.63,55135,7.19,72662.3,-7.27,-7.77,-7.69,0,*5A
1518052107.9,55136,7.19,72664.8,-7.27,-7.69,-7.77,0,*59
1518052109.13,55137,7.13,72662.8,-7.25,-7.83,-7.77,0,*5E
1518052110.36,55138,7.19,72664.5,-7.25,-7.77,-7.83,0,*51
1518052111.63,55139,7.19,72664.8,-7.27,-7.77,-7.77,0,*59
1518052112.88,55140,7.19,72664.0,-7.25,-7.77,-7.77,0,*55
1518052114.13,55141,7.19,72666.8,-7.25,-7.77,-7.77,0,*54
1518052115.38,55142,7.19,72664.8,-7.27,-7.77,-7.83,0,*5E
1518052116.63,55143,7.19,72666.8,-7.25,-7.77,-7.77,0,*56
1518052117.88,55144,7.19,72666.0,-7.25,-7.77,-7.77,0,*51
1518052119.15,55145,7.19,72666.5,-7.27,-7.77,-7.77,0,*52
1518052120.42,55146,7.19,72660.8,-7.27,-7.77,-7.77,0,*51
1518052121.7,55147,7.19,72662.5,-7.27,-7.77,-7.77,0,*50
1518052122.97,55148,7.19,72662.3,-7.27,-7.69,-7.77,0,*50